Time,TemperatureF,DewpointF,PressureIn,WindDirection,WindDirectionDegrees,WindSpeedMPH,WindSpeedGustMPH,Humidity,HourlyPrecipIn,Conditions,Clouds,dailyrainin,SoftwareType,DateUTC
2013-05-14 00:02:00,78.0,46.0,-100.00,South,175,19.0,27.0,33,0.00,,,0.00,,2013-05-14 00:02:00,
2013-05-14 00:12:00,77.0,46.0,-100.00,South,180,17.0,27.0,33,0.00,,,0.00,,2013-05-14 00:12:00,
2013-05-14 00:22:00,76.0,46.0,-100.00,South,180,16.0,24.0,33,0.00,,,0.00,,2013-05-14 00:22:00,
2013-05-14 00:31:00,76.0,46.0,-100.00,South,175,16.0,22.0,34,0.00,,,0.00,,2013-05-14 00:31:00,
2013-05-14 00:41:00,75.0,46.0,-100.00,South,175,16.0,22.0,34,0.00,,,0.00,,2013-05-14 00:41:00,
2013-05-14 00:51:00,75.0,46.0,-100.00,South,170,16.0,21.0,35,0.00,,,0.00,,2013-05-14 00:51:00,
2013-05-14 01:01:00,75.0,46.0,-100.00,South,175,16.0,21.0,35,0.00,,,0.00,,2013-05-14 01:01:00,
2013-05-14 01:11:00,75.0,46.0,-100.00,SSE,155,14.0,19.0,35,0.00,,,0.00,,2013-05-14 01:11:00,
2013-05-14 01:21:00,74.0,46.0,-100.00,SSE,165,16.0,21.0,36,0.00,,,0.00,,2013-05-14 01:21:00,
2013-05-14 01:32:00,73.0,46.0,-100.00,SSE,165,14.0,19.0,36,0.00,,,0.00,,2013-05-14 01:32:00,
2013-05-14 01:43:00,72.0,45.0,-100.00,South,170,16.0,20.0,37,0.00,,,0.00,,2013-05-14 01:43:00,
2013-05-14 01:52:00,72.0,45.0,-100.00,South,175,14.0,18.0,38,0.00,,,0.00,,2013-05-14 01:52:00,
2013-05-14 02:02:00,71.0,45.0,-100.00,South,170,11.0,15.0,39,0.00,,,0.00,,2013-05-14 02:02:00,
2013-05-14 02:11:00,71.0,46.0,-100.00,SSE,165,13.0,16.0,40,0.00,,,0.00,,2013-05-14 02:11:00,
2013-05-14 02:22:00,70.0,46.0,-100.00,South,175,13.0,19.0,41,0.00,,,0.00,,2013-05-14 02:22:00,
2013-05-14 02:32:00,70.0,46.0,-100.00,South,175,13.0,17.0,42,0.00,,,0.00,,2013-05-14 02:32:00,
2013-05-14 02:42:00,69.0,46.0,-100.00,South,180,13.0,17.0,43,0.00,,,0.00,,2013-05-14 02:42:00,
2013-05-14 02:51:00,69.0,46.0,-100.00,South,180,15.0,17.0,43,0.00,,,0.00,,2013-05-14 02:51:00,
2013-05-14 03:01:00,69.0,46.0,-100.00,South,185,15.0,18.0,43,0.00,,,0.00,,2013-05-14 03:01:00,
2013-05-14 03:11:00,69.0,46.0,-100.00,South,185,15.0,21.0,44,0.00,,,0.00,,2013-05-14 03:11:00,
2013-05-14 03:21:00,69.0,46.0,-100.00,South,185,15.0,20.0,44,0.00,,,0.00,,2013-05-14 03:21:00,
2013-05-14 03:33:00,69.0,46.0,-100.00,South,190,16.0,20.0,44,0.00,,,0.00,,2013-05-14 03:33:00,
2013-05-14 03:42:00,69.0,46.0,-100.00,South,185,17.0,21.0,44,0.00,,,0.00,,2013-05-14 03:42:00,
2013-05-14 03:52:00,68.0,46.0,-100.00,South,190,16.0,23.0,45,0.00,,,0.00,,2013-05-14 03:52:00,
2013-05-14 04:02:00,68.0,46.0,-100.00,SSW,195,19.0,22.0,46,0.00,,,0.00,,2013-05-14 04:02:00,
2013-05-14 04:13:00,68.0,46.0,-100.00,South,190,17.0,22.0,46,0.00,,,0.00,,2013-05-14 04:13:00,
2013-05-14 04:22:00,67.0,46.0,-100.00,SSW,200,17.0,21.0,47,0.00,,,0.00,,2013-05-14 04:22:00,
2013-05-14 04:32:00,67.0,46.0,-100.00,SSW,195,18.0,23.0,47,0.00,,,0.00,,2013-05-14 04:32:00,
2013-05-14 04:43:00,67.0,46.0,-100.00,SSW,200,16.0,22.0,48,0.00,,,0.00,,2013-05-14 04:43:00,
2013-05-14 04:52:00,66.0,46.0,-100.00,SSW,200,15.0,19.0,49,0.00,,,0.00,,2013-05-14 04:52:00,
2013-05-14 05:01:00,66.0,46.0,-100.00,SSW,195,14.0,21.0,50,0.00,,,0.00,,2013-05-14 05:01:00,
2013-05-14 05:12:00,66.0,46.0,-100.00,SSW,205,14.0,20.0,50,0.00,,,0.00,,2013-05-14 05:12:00,
2013-05-14 05:21:00,66.0,46.0,-100.00,SSW,200,10.0,16.0,50,0.00,,,0.00,,2013-05-14 05:21:00,
2013-05-14 05:32:00,66.0,46.0,-100.00,SSW,205,12.0,16.0,50,0.00,,,0.00,,2013-05-14 05:32:00,
2013-05-14 05:42:00,65.0,46.0,-100.00,SSW,200,12.0,16.0,51,0.00,,,0.00,,2013-05-14 05:42:00,
2013-05-14 05:52:00,64.0,46.0,-100.00,SSW,205,8.0,16.0,53,0.00,,,0.00,,2013-05-14 05:52:00,
2013-05-14 06:01:00,64.0,46.0,-100.00,SSW,200,10.0,16.0,53,0.00,,,0.00,,2013-05-14 06:01:00,
2013-05-14 06:12:00,64.0,46.0,-100.00,SSW,205,9.0,12.0,54,0.00,,,0.00,,2013-05-14 06:12:00,
2013-05-14 06:22:00,63.0,46.0,-100.00,SSW,195,7.0,11.0,56,0.00,,,0.00,,2013-05-14 06:22:00,
2013-05-14 06:32:00,62.0,46.0,-100.00,SSW,195,6.0,7.0,58,0.00,,,0.00,,2013-05-14 06:32:00,
2013-05-14 06:42:00,61.0,46.0,-100.00,SSW,195,4.0,9.0,60,0.00,,,0.00,,2013-05-14 06:42:00,
2013-05-14 06:51:00,62.0,48.0,-100.00,SW,225,7.0,11.0,59,0.00,,,0.00,,2013-05-14 06:51:00,
2013-05-14 07:02:00,63.0,48.0,-100.00,SW,220,9.0,12.0,58,0.00,,,0.00,,2013-05-14 07:02:00,
2013-05-14 07:11:00,62.0,48.0,-100.00,SW,230,6.0,12.0,59,0.00,,,0.00,,2013-05-14 07:11:00,
2013-05-14 07:21:00,62.0,48.0,-100.00,SW,225,6.0,8.0,60,0.00,,,0.00,,2013-05-14 07:21:00,
2013-05-14 07:31:00,61.0,48.0,-100.00,SW,220,6.0,9.0,60,0.00,,,0.00,,2013-05-14 07:31:00,
2013-05-14 07:41:00,61.0,48.0,-100.00,SW,220,4.0,7.0,61,0.00,,,0.00,,2013-05-14 07:41:00,
2013-05-14 07:52:00,59.0,46.0,-100.00,SSW,210,4.0,6.0,63,0.00,,,0.00,,2013-05-14 07:52:00,
2013-05-14 08:02:00,58.0,46.0,-100.00,SW,220,6.0,7.0,65,0.00,,,0.00,,2013-05-14 08:02:00,
2013-05-14 08:11:00,60.0,48.0,-100.00,SW,225,6.0,9.0,63,0.00,,,0.00,,2013-05-14 08:11:00,
2013-05-14 08:21:00,58.0,46.0,-100.00,SW,225,3.0,7.0,66,0.00,,,0.00,,2013-05-14 08:21:00,
2013-05-14 08:31:00,57.0,46.0,-100.00,SW,220,4.0,6.0,68,0.00,,,0.00,,2013-05-14 08:31:00,
2013-05-14 08:41:00,56.0,46.0,-100.00,SW,215,4.0,6.0,70,0.00,,,0.00,,2013-05-14 08:41:00,
2013-05-14 08:51:00,55.0,46.0,-100.00,SW,215,3.0,6.0,71,0.00,,,0.00,,2013-05-14 08:51:00,
2013-05-14 09:02:00,56.0,46.0,-100.00,SW,215,4.0,6.0,71,0.00,,,0.00,,2013-05-14 09:02:00,
2013-05-14 09:11:00,56.0,46.0,-100.00,SSW,210,5.0,6.0,71,0.00,,,0.00,,2013-05-14 09:11:00,
2013-05-14 09:21:00,56.0,46.0,-100.00,SSW,200,5.0,6.0,72,0.00,,,0.00,,2013-05-14 09:21:00,
2013-05-14 09:32:00,57.0,48.0,-100.00,South,180,7.0,7.0,70,0.00,,,0.00,,2013-05-14 09:32:00,
2013-05-14 09:44:00,56.0,46.0,-100.00,SSW,210,4.0,7.0,70,0.00,,,0.00,,2013-05-14 09:44:00,
2013-05-14 09:54:00,56.0,46.0,-100.00,SW,215,4.0,4.0,72,0.00,,,0.00,,2013-05-14 09:54:00,
2013-05-14 10:04:00,56.0,48.0,-100.00,SSW,195,4.0,4.0,73,0.00,,,0.00,,2013-05-14 10:04:00,
2013-05-14 10:14:00,56.0,48.0,-100.00,South,190,5.0,6.0,73,0.00,,,0.00,,2013-05-14 10:14:00,
2013-05-14 10:25:00,56.0,48.0,-100.00,South,190,6.0,6.0,72,0.00,,,0.00,,2013-05-14 10:25:00,
2013-05-14 10:33:00,55.0,46.0,-100.00,South,190,6.0,6.0,73,0.00,,,0.00,,2013-05-14 10:33:00,
2013-05-14 10:42:00,54.0,46.0,-100.00,South,190,7.0,9.0,75,0.00,,,0.00,,2013-05-14 10:42:00,
2013-05-14 10:52:00,54.0,46.0,-100.00,SSW,195,7.0,9.0,76,0.00,,,0.00,,2013-05-14 10:52:00,
2013-05-14 11:02:00,54.0,48.0,-100.00,SSW,200,7.0,10.0,76,0.00,,,0.00,,2013-05-14 11:02:00,
2013-05-14 11:11:00,56.0,48.0,-100.00,SW,220,7.0,11.0,74,0.00,,,0.00,,2013-05-14 11:11:00,
2013-05-14 11:21:00,57.0,48.0,-100.00,SSW,205,7.0,10.0,73,0.00,,,0.00,,2013-05-14 11:21:00,
2013-05-14 11:32:00,56.0,48.0,-100.00,SSW,200,6.0,7.0,74,0.00,,,0.00,,2013-05-14 11:32:00,
2013-05-14 11:43:00,56.0,48.0,-100.00,South,190,7.0,7.0,75,0.00,,,0.00,,2013-05-14 11:43:00,
2013-05-14 11:52:00,56.0,48.0,-100.00,South,180,6.0,7.0,75,0.00,,,0.00,,2013-05-14 11:52:00,
2013-05-14 12:02:00,57.0,50.0,-100.00,South,180,7.0,8.0,74,0.00,,,0.00,,2013-05-14 12:02:00,
2013-05-14 12:12:00,57.0,50.0,-100.00,South,175,7.0,8.0,74,0.00,,,0.00,,2013-05-14 12:12:00,
2013-05-14 12:21:00,59.0,50.0,-100.00,South,185,6.0,9.0,71,0.00,,,0.00,,2013-05-14 12:21:00,
2013-05-14 12:32:00,61.0,50.0,-100.00,SSW,200,8.0,10.0,69,0.00,,,0.00,,2013-05-14 12:32:00,
2013-05-14 12:42:00,62.0,50.0,-100.00,SSW,200,7.0,11.0,67,0.00,,,0.00,,2013-05-14 12:42:00,
2013-05-14 12:51:00,63.0,50.0,-100.00,SSW,200,6.0,10.0,64,0.00,,,0.00,,2013-05-14 12:51:00,
2013-05-14 13:01:00,64.0,52.0,-100.00,SW,220,4.0,7.0,62,0.00,,,0.00,,2013-05-14 13:01:00,
2013-05-14 13:11:00,66.0,50.0,-100.00,SW,215,5.0,10.0,57,0.00,,,0.00,,2013-05-14 13:11:00,
2013-05-14 13:22:00,68.0,50.0,-100.00,SSW,200,4.0,6.0,52,0.00,,,0.00,,2013-05-14 13:22:00,
2013-05-14 13:32:00,70.0,50.0,-100.00,South,185,6.0,7.0,50,0.00,,,0.00,,2013-05-14 13:32:00,
2013-05-14 13:41:00,71.0,50.0,-100.00,South,185,10.0,12.0,48,0.00,,,0.00,,2013-05-14 13:41:00,
2013-05-14 13:52:00,72.0,52.0,-100.00,South,185,9.0,12.0,46,0.00,,,0.00,,2013-05-14 13:52:00,
2013-05-14 14:01:00,74.0,50.0,-100.00,South,190,11.0,14.0,43,0.00,,,0.00,,2013-05-14 14:01:00,
2013-05-14 14:11:00,74.0,50.0,-100.00,South,180,12.0,14.0,42,0.00,,,0.00,,2013-05-14 14:11:00,
2013-05-14 14:22:00,76.0,50.0,-100.00,South,190,14.0,18.0,40,0.00,,,0.00,,2013-05-14 14:22:00,
2013-05-14 14:31:00,77.0,50.0,-100.00,South,185,13.0,18.0,37,0.00,,,0.00,,2013-05-14 14:31:00,
2013-05-14 14:41:00,77.0,50.0,-100.00,South,185,12.0,17.0,37,0.00,,,0.00,,2013-05-14 14:41:00,
2013-05-14 14:52:00,78.0,48.0,-100.00,SSW,200,13.0,17.0,35,0.00,,,0.00,,2013-05-14 14:52:00,
2013-05-14 15:01:00,79.0,48.0,-100.00,SSW,195,17.0,22.0,34,0.00,,,0.00,,2013-05-14 15:01:00,
2013-05-14 15:12:00,78.0,48.0,-100.00,South,190,13.0,23.0,34,0.00,,,0.00,,2013-05-14 15:12:00,
2013-05-14 15:21:00,78.0,48.0,-100.00,SW,220,7.0,20.0,34,0.00,,,0.00,,2013-05-14 15:21:00,
2013-05-14 15:33:00,78.0,48.0,-100.00,SSE,155,11.0,14.0,34,0.00,,,0.00,,2013-05-14 15:33:00,
2013-05-14 15:43:00,78.0,48.0,-100.00,SSE,165,4.0,9.0,34,0.00,,,0.00,,2013-05-14 15:43:00,
2013-05-14 15:53:00,78.0,48.0,-100.00,SSE,155,2.0,7.0,34,0.00,,,0.00,,2013-05-14 15:53:00,
2013-05-14 16:02:00,77.0,50.0,-100.00,NNW,345,6.0,6.0,37,0.00,,,0.00,,2013-05-14 16:02:00,
2013-05-14 16:12:00,76.0,50.0,-100.00,North,5,6.0,8.0,39,0.00,,,0.00,,2013-05-14 16:12:00,
2013-05-14 16:23:00,76.0,50.0,-100.00,SSE,165,3.0,7.0,38,0.00,,,0.00,,2013-05-14 16:23:00,
2013-05-14 16:33:00,77.0,50.0,-100.00,SSE,150,8.0,9.0,39,0.00,,,0.00,,2013-05-14 16:33:00,
2013-05-14 16:43:00,76.0,50.0,-100.00,SE,140,11.0,12.0,40,0.00,,,0.00,,2013-05-14 16:43:00,
2013-05-14 16:54:00,77.0,50.0,-100.00,SSE,150,17.0,21.0,38,0.00,,,0.00,,2013-05-14 16:54:00,
2013-05-14 17:03:00,78.0,52.0,-100.00,SSE,150,17.0,22.0,38,0.00,,,0.00,,2013-05-14 17:03:00,
2013-05-14 17:13:00,80.0,50.0,-100.00,SE,140,17.0,23.0,36,0.00,,,0.00,,2013-05-14 17:13:00,
2013-05-14 17:24:00,79.0,50.0,-100.00,SE,145,13.0,23.0,36,0.00,,,0.00,,2013-05-14 17:24:00,
2013-05-14 17:32:00,80.0,50.0,-100.00,SE,140,21.0,25.0,35,0.00,,,0.00,,2013-05-14 17:32:00,
2013-05-14 17:43:00,81.0,50.0,-100.00,SE,145,20.0,26.0,34,0.00,,,0.00,,2013-05-14 17:43:00,
2013-05-14 17:52:00,85.0,52.0,-100.00,SE,140,26.0,32.0,32,0.00,,,0.00,,2013-05-14 17:52:00,
2013-05-14 18:02:00,86.0,52.0,-100.00,SE,140,27.0,35.0,31,0.00,,,0.00,,2013-05-14 18:02:00,
2013-05-14 18:12:00,86.0,52.0,-100.00,SE,140,26.0,36.0,30,0.00,,,0.00,,2013-05-14 18:12:00,
2013-05-14 18:22:00,88.0,52.0,-100.00,SSE,150,26.0,37.0,28,0.00,,,0.00,,2013-05-14 18:22:00,
2013-05-14 18:32:00,88.0,52.0,-100.00,SE,140,26.0,35.0,28,0.00,,,0.00,,2013-05-14 18:32:00,
2013-05-14 18:42:00,89.0,52.0,-100.00,SSE,150,29.0,37.0,28,0.00,,,0.00,,2013-05-14 18:42:00,
2013-05-14 18:52:00,90.0,54.0,-100.00,SSE,150,26.0,33.0,27,0.00,,,0.00,,2013-05-14 18:52:00,
2013-05-14 19:01:00,92.0,54.0,-100.00,SSE,160,26.0,33.0,27,0.00,,,0.00,,2013-05-14 19:01:00,
2013-05-14 19:11:00,93.0,54.0,-100.00,South,170,21.0,31.0,26,0.00,,,0.00,,2013-05-14 19:11:00,
2013-05-14 19:22:00,94.0,54.0,-100.00,SE,140,21.0,27.0,26,0.00,,,0.00,,2013-05-14 19:22:00,
2013-05-14 19:32:00,94.0,54.0,-100.00,SSE,150,21.0,27.0,25,0.00,,,0.00,,2013-05-14 19:32:00,
2013-05-14 19:42:00,98.0,55.0,-100.00,SSW,195,19.0,28.0,23,0.00,,,0.00,,2013-05-14 19:42:00,
2013-05-14 19:52:00,98.0,54.0,-100.00,SW,230,17.0,29.0,22,0.00,,,0.00,,2013-05-14 19:52:00,
2013-05-14 20:02:00,96.0,52.0,-100.00,WNW,290,16.0,31.0,22,0.00,,,0.00,,2013-05-14 20:02:00,
2013-05-14 20:11:00,96.0,52.0,-100.00,West,280,17.0,31.0,22,0.00,,,0.00,,2013-05-14 20:11:00,
2013-05-14 20:23:00,97.0,52.0,-100.00,WNW,290,24.0,32.0,21,0.00,,,0.00,,2013-05-14 20:23:00,
2013-05-14 20:32:00,98.0,52.0,-100.00,West,280,18.0,26.0,21,0.00,,,0.00,,2013-05-14 20:32:00,
2013-05-14 20:44:00,97.0,50.0,-100.00,WNW,285,22.0,30.0,20,0.00,,,0.00,,2013-05-14 20:44:00,
2013-05-14 20:52:00,97.0,50.0,-100.00,WNW,285,22.0,32.0,20,0.00,,,0.00,,2013-05-14 20:52:00,
2013-05-14 21:03:00,97.0,50.0,-100.00,WNW,295,21.0,32.0,20,0.00,,,0.00,,2013-05-14 21:03:00,
2013-05-14 21:12:00,96.0,48.0,-100.00,WNW,295,19.0,30.0,20,0.00,,,0.00,,2013-05-14 21:12:00,
2013-05-14 21:23:00,96.0,48.0,-100.00,WNW,300,23.0,33.0,20,0.00,,,0.00,,2013-05-14 21:23:00,
2013-05-14 21:33:00,96.0,48.0,-100.00,NW,310,25.0,31.0,20,0.00,,,0.00,,2013-05-14 21:33:00,
2013-05-14 21:42:00,96.0,48.0,-100.00,NW,310,24.0,31.0,20,0.00,,,0.00,,2013-05-14 21:42:00,
2013-05-14 21:52:00,95.0,48.0,-100.00,NW,310,21.0,32.0,20,0.00,,,0.00,,2013-05-14 21:52:00,
2013-05-14 22:03:00,95.0,48.0,-100.00,NW,315,26.0,34.0,20,0.00,,,0.00,,2013-05-14 22:03:00,
2013-05-14 22:13:00,95.0,48.0,-100.00,NW,315,23.0,34.0,20,0.00,,,0.00,,2013-05-14 22:13:00,
2013-05-14 22:24:00,94.0,46.0,-100.00,NW,315,24.0,35.0,19,0.00,,,0.00,,2013-05-14 22:24:00,
2013-05-14 22:34:00,94.0,46.0,-100.00,NW,305,20.0,31.0,19,0.00,,,0.00,,2013-05-14 22:34:00,
2013-05-14 22:45:00,95.0,46.0,-100.00,NNW,330,21.0,32.0,19,0.00,,,0.00,,2013-05-14 22:45:00,
2013-05-14 22:54:00,94.0,45.0,-100.00,NW,320,26.0,35.0,19,0.00,,,0.00,,2013-05-14 22:54:00,
2013-05-14 23:03:00,93.0,45.0,-100.00,NW,320,26.0,36.0,18,0.00,,,0.00,,2013-05-14 23:03:00,
2013-05-14 23:12:00,93.0,45.0,-100.00,NW,320,21.0,32.0,18,0.00,,,0.00,,2013-05-14 23:12:00,
2013-05-14 23:21:00,92.0,43.0,-100.00,NW,310,21.0,32.0,18,0.00,,,0.00,,2013-05-14 23:21:00,
2013-05-14 23:32:00,92.0,43.0,-100.00,NW,315,22.0,37.0,18,0.00,,,0.00,,2013-05-14 23:32:00,
2013-05-14 23:44:00,91.0,43.0,-100.00,NW,315,24.0,34.0,18,0.00,,,0.00,,2013-05-14 23:44:00,
2013-05-14 23:52:00,91.0,43.0,-100.00,NW,315,22.0,34.0,18,0.00,,,0.00,,2013-05-14 23:52:00,